This demonstration page uses our WeatherBlox Daily Observations layout. Learn more.

41.55636, -103.73856

Hourly Observations for August 28, 2019

Temp ( °F °C ) Dew Point ( °F °C ) Humidity (%) Winds ( mph kmh ) Pressure ( in mb ) Visibility ( mi km ) Precip ( " mm )
12:58 am 00:58 Clear 53 11.4 50 9.8 90 90 SW 7 11 30.12 1020 10 16.09344 0 0
1:58 am 01:58 Clear 52 11.2 50 10 92 92 SW 5 7 30.09 1019 10 16.09344 0 0
2:58 am 02:58 Clear 53 11.5 51 10.5 94 94 SW 8 13 30.06 1018 10 16.09344 0 0
3:58 am 03:58 Clear 52 11.1 50 10.1 94 94 SW 7 11 30.06 1018 10 16.09344 0 0
4:58 am 04:58 Clear 50 10.2 49 9.6 96 96 WSW 6 9 30.03 1017 10 16.09344 0 0
5:58 am 05:58 Clear 50 9.9 49 9.3 96 96 WSW 8 13 30.03 1017 10 16.09344 0 0
6:58 am 06:58 Sunny 50 9.8 49 9.3 97 97 WSW 8 13 30.03 1017 9 14.484096 0 0
7:58 am 07:58 Sunny 56 13.4 54 12.2 93 93 WSW 9 15 30.03 1017 10 16.09344 0 0
8:58 am 08:58 Sunny 61 16.1 55 12.6 80 80 W 7 11 30.03 1017 10 16.09344 0 0
9:58 am 09:58 Sunny 71 21.4 57 13.7 62 62 WNW 10 17 30 1016 10 16.09344 0 0
10:58 am 10:58 Sunny 74 23.6 45 7.4 35 35 NW 7 11 30 1016 10 16.09344 0 0
11:58 am 11:58 Sunny 77 25 48 9.1 37 37 NNW 6 9 30 1016 10 16.09344 0 0
12:58 pm 12:58 Sunny 79 26.1 47 8.1 32 32 Calm 29.97 1015 10 16.09344 0 0
1:58 pm 13:58 Sunny 80 26.6 49 9.7 35 35 Calm 29.97 1015 10 16.09344 0 0
2:58 pm 14:58 Sunny 83 28.4 39 4 21 21 NW 6 9 29.94 1014 10 16.09344 0 0
3:58 pm 15:58 Sunny 83 28.6 39 4.1 21 21 NNW 5 7 29.91 1013 10 16.09344 0 0
4:58 pm 16:58 Sunny 84 28.9 38 3.2 19 19 WSW 5 7 29.88 1012 10 16.09344 0 0
5:58 pm 17:58 Sunny 82 27.5 47 8.3 30 30 ESE 5 7 29.88 1012 10 16.09344 0 0
6:58 pm 18:58 Sunny 76 24.4 53 11.7 45 45 ESE 5 7 29.88 1012 10 16.09344 0 0
7:58 pm 19:58 Clear 70 21.3 49 9.3 46 46 SE 7 11 29.91 1013 10 16.09344 0 0
8:58 pm 20:58 Clear 67 19.2 47 8.1 49 49 S 8 13 29.91 1013 10 16.09344 0 0
9:58 pm 21:58 Clear 63 17.4 47 8.5 56 56 SSE 8 13 29.91 1013 10 16.09344 0 0
10:58 pm 22:58 Clear 61 15.9 48 9.1 64 64 S 8 13 29.88 1012 10 16.09344 0 0
11:58 pm 23:58 Clear 60 15.5 53 11.7 78 78 SSW 9 15 29.85 1011 10 16.09344 0 0

Powered by AerisWeather